Weather History for Atlanta, GA

Change the Weather History Date:

Tuesday, December 17, 2013

  Actual Average Record
Temperature  
Mean Temperature 50 °F 45 °F  
Max Temperature 62 °F 53 °F 75 °F (1933)
Min Temperature 37 °F 36 °F 15 °F (1901)
Degree Days  
Heating Degree Days 15 20  
Month to date heating degree days 260 314  
Since 1 July heating degree days 787 782  
Cooling Degree Days 0 0  
Month to date cooling degree days 7 0  
Year to date cooling degree days 1762 1882  
Moisture  
Dew Point 31 °F    
Average Humidity 53    
Maximum Humidity 76    
Minimum Humidity 29    
Precipitation  
Precipitation 0.00 in 0.12 in 3.65 in (1915)
Month to date precipitation 2.99 2.23  
Year to date precipitation 61.21 48.04  
Snow  
Snow 0.00 in 0.00 in 0.00 in (2001)
Month to date snowfall 0.0 0.1  
Since 1 July snowfall 0.4 0.1  
Snow Depth 0.00 in    
Sea Level Pressure  
Sea Level Pressure 30.18 in    
Wind  
Wind Speed 8 mph (West)    
Max Wind Speed 17 mph    
Max Gust Speed 24 mph    
Visibility 10 miles    
Events      
T = Trace of Precipitation, MM = Missing Value Source: NWS Daily Summary

Daily Weather History Graph

Daily Weather History Graph

Search for Another Location

Airport:

Trip Planner

Search our weather history database for the weather conditions in past years. The results will help you decide how hot, cold, wet, or windy it might be!

Date:

Astronomy

Dec. 17, 2013 Rise Set
Actual Time 7:36 AM EST 5:31 PM EST
Civil Twilight 7:08 AM EST 5:59 PM EST
Nautical Twilight 6:37 AM EST 6:30 PM EST
Astronomical Twilight 6:07 AM EST 7:01 PM EST
Moon 6:08 PM EST (12/17) 7:34 AM EST (12/17)
Length of Visible Light 10h 50m
Length of Day
9h 55m
Full, 100% of the Moon is Illuminated
Dec 17
Full
Dec 25
Last Quarter
Jan 1
New
Jan 7
First Quarter
Jan 15
Full

Hourly Weather History & Observations

Time (EST) Temp. Windchill Dew Point Humidity Pressure Visibility Wind Dir Wind Speed Gust Speed Precip Events Conditions
1:52 AM 42.1 °F 40.2 °F 30.0 °F 62% 30.23 in 10.0 mi WSW 3.5 mph - N/A   Clear
2:52 AM 41.0 °F 39.0 °F 30.0 °F 65% 30.23 in 10.0 mi WSW 3.5 mph - N/A   Clear
3:52 AM 39.0 °F 36.8 °F 30.0 °F 70% 30.22 in 10.0 mi West 3.5 mph - N/A   Clear
4:52 AM 37.9 °F - 30.0 °F 73% 30.22 in 10.0 mi Calm Calm - N/A   Clear
5:52 AM 39.0 °F 34.8 °F 30.0 °F 70% 30.23 in 10.0 mi West 5.8 mph - N/A   Clear
6:52 AM 37.9 °F 34.4 °F 30.0 °F 73% 30.22 in 10.0 mi West 4.6 mph - N/A   Clear
7:52 AM 37.0 °F - 30.0 °F 76% 30.23 in 10.0 mi Calm Calm - N/A   Partly Cloudy
8:52 AM 44.1 °F 41.5 °F 32.0 °F 63% 30.24 in 10.0 mi WSW 4.6 mph - N/A   Partly Cloudy
9:52 AM 48.0 °F - 32.0 °F 54% 30.25 in 10.0 mi WSW 8.1 mph - N/A   Partly Cloudy
10:52 AM 53.1 °F - 33.1 °F 47% 30.23 in 10.0 mi West 9.2 mph 16.1 mph N/A   Partly Cloudy
11:52 AM 55.9 °F - 30.9 °F 39% 30.20 in 10.0 mi West 9.2 mph 18.4 mph N/A   Partly Cloudy
12:52 PM 60.1 °F - 33.1 °F 36% 30.17 in 10.0 mi West 15.0 mph 21.9 mph N/A   Partly Cloudy
1:52 PM 61.0 °F - 30.0 °F 31% 30.14 in 10.0 mi West 12.7 mph - N/A   Clear
2:52 PM 62.1 °F - 30.0 °F 30% 30.12 in 10.0 mi West 13.8 mph - N/A   Clear
3:52 PM 62.1 °F - 30.9 °F 31% 30.12 in 10.0 mi West 11.5 mph - N/A   Clear
4:52 PM 60.1 °F - 28.9 °F 31% 30.12 in 10.0 mi WSW 6.9 mph - N/A   Partly Cloudy
5:52 PM 55.9 °F - 28.9 °F 36% 30.12 in 10.0 mi WSW 9.2 mph - N/A   Partly Cloudy
6:52 PM 54.0 °F - 30.9 °F 41% 30.14 in 10.0 mi WSW 8.1 mph - N/A   Partly Cloudy
7:52 PM 53.1 °F - 30.9 °F 43% 30.14 in 10.0 mi WSW 9.2 mph - N/A   Partly Cloudy
8:52 PM 53.1 °F - 33.1 °F 47% 30.14 in 10.0 mi WSW 10.4 mph - N/A   Partly Cloudy
9:52 PM 51.1 °F - 34.0 °F 52% 30.15 in 10.0 mi West 10.4 mph - N/A   Partly Cloudy
10:52 PM 48.9 °F - 35.1 °F 59% 30.17 in 10.0 mi West 10.4 mph - N/A   Partly Cloudy
11:52 PM 48.0 °F - 35.1 °F 61% 30.18 in 10.0 mi WNW 11.5 mph - N/A   Clear